Flag for Canada Weather past 2 weeks in Victoria, British Columbia, Canada

Now
46 °F

Passing clouds.


Feels Like: 43 °F
Forecast: 44 / 52 °F
Wind: 7 mph from West

Location: Victoria Int. Airportb. C.


UV Index: 3 (Moderate)

Visibility: 30 mi


Pressure: 29.87 "Hg

Humidity: 71%

Dew point: 37 °F

Location of VictoriaLocation

Historic Weather in Victoria

°F

Victoria temperature yesterday

Maximum temperature yesterday: 54 °F (at 3:00 PM)
Minimum temperature yesterday: 41 °F (at 1:00 AM)
Average temperature yesterday: 47 °F

Past Weeks' High & Low Weather Summary

 TemperatureHumidityPressure
High63 °F (Apr 11, 2:00 PM)100% (Apr 12, 6:00 AM)30.35 "Hg (Apr 12, 6:00 AM)
Low36 °F (Apr 14, 5:00 AM)27% (Apr 13, 5:00 PM)29.53 "Hg (Apr 24, 4:00 AM)
Average49 °F76%30.01 "Hg
* Reported Apr 9 10:00 PM — Apr 24 10:00 PM, Victoria, Weather by CustomWeather, © 2014

Note: Actual official high and low records may vary slightly from our data, if they occured in-between our weather recording intervals... More about our weather records

Advertising

Historic Weather Conditions — Data for Previous 24 hours

 ConditionsComfort  
Time TempWeatherWind HumidityBarometerVisibility
10:00 PM
Apr 24
46 °FPassing clouds.7 mph71%29.87 "Hg30 mi
9:00 PM46 °FPartly sunny.6 mph76%29.86 "Hg30 mi
8:00 PM50 °FPartly sunny.15 mph62%29.84 "Hg30 mi
7:00 PM52 °FPartly sunny.8 mph62%29.83 "Hg30 mi
6:00 PM52 °FBroken clouds.10 mph67%29.82 "Hg30 mi
5:00 PM54 °FPartly sunny.16 mph58%29.81 "Hg30 mi
4:00 PM54 °FPartly sunny.14 mph63%29.80 "Hg30 mi
3:00 PM54 °FBroken clouds.17 mph67%29.79 "Hg30 mi
2:00 PM55 °FBroken clouds.18 mph67%29.77 "Hg30 mi
1:00 PM54 °FBroken clouds.10 mph77%29.75 "Hg30 mi
12:00 PM52 °FSprinkles. Cloudy.16 mph77%29.73 "Hg30 mi
11:00 AM52 °FSprinkles. Partly sunny.22 mph77%29.70 "Hg30 mi
10:00 AM54 °FBroken clouds.13 mph67%29.66 "Hg30 mi
9:00 AM52 °FBroken clouds.13 mph72%29.64 "Hg30 mi
8:00 AM50 °FBroken clouds.12 mph76%29.61 "Hg30 mi
7:00 AM50 °FPartly cloudy.13 mph82%29.59 "Hg20 mi
6:00 AM48 °FOvercast.10 mph94%29.55 "Hg10 mi
5:00 AM50 °FLight rain. Fog.9 mph94%29.55 "Hg1 mi
4:00 AM48 °FLight rain. Fog.16 mph100%29.53 "Hg1 mi
3:00 AM48 °FLight rain. Fog.12 mph100%29.53 "Hg2 mi
2:00 AM48 °FLight rain. Fog.8 mph94%29.56 "Hg3 mi
1:00 AM46 °FLight rain. Fog.10 mph100%29.58 "Hg4 mi
12:00 AM46 °FRain. Fog.9 mph100%29.61 "Hg4 mi
11:00 PM
Apr 23
46 °FRain. Fog.10 mph93%29.64 "Hg4 mi
Weather by CustomWeather, © 2014

See weather overview